Find Starlink 6290

NORAD ID: 57328 Int'l Des: 2023-099 Owner: SPXS Country: US Constellation: starlink operational
LEOCIRCULAR

現在のビュー

3D地球を読み込み中...

About Starlink 6290

Starlink 6290 (NORAD 57328) is a starlink constellation satellite (v1.5) launched Jul 16, 2023 by SPXS of US. It operates in LEO, CIRCULAR orbit with a mass of 305.00 kg.

Starlink 6290について

説明を読み込み中...

次回通過

Passes for default location (London). Set your location on the main map for personalized predictions.

高度履歴

Loading altitude history...

軌道要素

1 57328U 23099A 26166.40001175 -.00000291 00000-0 -10425-5 0 9998
2 57328 43.0031 60.2714 0000965 220.2104 139.8676 15.27572412161935
Epoch: Jun 15, 2026 • Age: 13 hours

現在のステータス

高度 481.8 km
速度 7.63 km/s
衛星直下点 9.50°N, 20.53°W
打ち上げ日 Jul 16, 2023
運用期間 2.9 years
タイプ internet

技術仕様

分類 Payload
質量 305.00 kg
乾燥質量 290.00 kg
総質量 305.00 kg
長さ 0.20 m
直径 2.80 m
スパン 9.00 m
形状 Box + pan
製造者 SPXS
バスタイプ Starlink
フェーズステータス In Orbit
所有者/国 SPXS/US

Most Searched